This is the latest recevied weather packets stored in our database for station/object KJ4W. If no packets are shown the sender has not sent any weather packets the latest 10 day(s).
| Time | Temp. | Humidity | Pressure | Rain* | Wind** | Luminosity | Snow |
|---|---|---|---|---|---|---|---|
| 1777539536 | 9.44° C | 82% | 1016.3 hPa | 0 mm | - | - | - |
| 1777538636 | 10° C | 80% | 1016.3 hPa | 0 mm | - | - | - |
| 1777537736 | 10.56° C | 79% | 1016.2 hPa | 0 mm | - | - | - |
| 1777536836 | 10.56° C | 77% | 1016.2 hPa | 0 mm | - | - | - |
| 1777535938 | 11.11° C | 75% | 1016.2 hPa | 0 mm | - | - | - |
| 1777535035 | 11.67° C | 73% | 1016.3 hPa | 0 mm | - | - | - |
| 1777531436 | 13.33° C | 69% | 1016.3 hPa | 0 mm | - | - | - |
| 1777530537 | 13.33° C | 68% | 1016.4 hPa | 0 mm | - | - | - |
| 1777529637 | 13.89° C | 67% | 1016.5 hPa | 0 mm | - | - | - |
| 1777528736 | 13.89° C | 66% | 1016.8 hPa | 0 mm | - | - | - |
| 1777527837 | 13.89° C | 67% | 1016.8 hPa | 0 mm | - | - | - |
| 1777526936 | 13.89° C | 70% | 1016.9 hPa | 0 mm | - | - | - |
| 1777526036 | 14.44° C | 68% | 1016.6 hPa | 0 mm | - | - | - |
| 1777525137 | 14.44° C | 67% | 1016.3 hPa | 0 mm | - | - | - |
| 1777524236 | 14.44° C | 68% | 1016.5 hPa | 0 mm | - | - | - |
| 1777523335 | 14.44° C | 69% | 1016.3 hPa | 0 mm | - | - | - |
| 1777522435 | 15° C | 69% | 1016.2 hPa | 0 mm | - | - | - |
| 1777521536 | 15° C | 68% | 1015.9 hPa | 0 mm | - | - | - |
| 1777520636 | 15° C | 69% | 1015.8 hPa | 0 mm | - | - | - |
| 1777519735 | 15.56° C | 67% | 1015.4 hPa | 0 mm | - | - | - |
| 1777518836 | 15.56° C | 68% | 1015.6 hPa | 0 mm | - | - | - |
| 1777517935 | 15.56° C | 69% | 1015.4 hPa | 0 mm | - | - | - |
| 1777517036 | 15.56° C | 71% | 1015.7 hPa | 0 mm | - | - | - |
| 1777516136 | 15.56° C | 72% | 1016.3 hPa | 0 mm | - | - | - |
| 1777515235 | 15.56° C | 71% | 1016 hPa | 0 mm | - | - | - |
* Rain latest hour (hover to see other rain measurements)
** Current wind speed in m/s (hover to see current wind gust speed)